INTELSAT 22 (IS-22)

Last updated on Wed May 21 2025 00:02:43 GMT+0000 (Coordinated Universal Time)

1 38098U 12011A 25140.53332600 -.00000050 00000+0 00000+0 0 9991 2 38098 0.0025 10.1176 0001852 54.5165 77.9019 1.00272125 3258
UTC large
Height (km)
Speed (km/s)
/
Latitude / Longitude
Inclination (degrees)
Orbital Period (minutes)
Azimuth
Elevation
Range (km)
Doppler Factor

Next 0 passes for location: London (51.5072 / 0.1276)

Sorry there are no passes over London.